Flag for Portugal Weather past 2 weeks in Coimbra, Portugal

Now
68 °F

Partly cloudy.


Feels Like: 68 °F
Forecast: 60 / 69 °F
Wind: 18 mph from South

Location: Porto / Pedras Rubras

Current Time: Sep 17, 2014 at 5:00:21 AM

Latest Report: Sep 17, 2014 at 4:00 AM


Visibility: N/A

Pressure: 29.53 "Hg

Humidity: 94%

Dew point: 66 °F

Location of CoimbraLocation

Historic Weather in Coimbra — Graph

°F

Coimbra temperature yesterday

Maximum temperature yesterday: 77 °F (at 12:30 PM)
Minimum temperature yesterday: 68 °F (at 12:00 AM)
Average temperature yesterday: 71 °F

Past Weeks' High & Low Weather Summary

 TemperatureHumidityPressure
High81 °F (Sep 11, 2:30 PM)100% (Sep 2, 3:00 AM)30.04 "Hg (Sep 2, 3:00 AM)
Low57 °F (Sep 5, 4:30 AM)51% (Sep 10, 1:00 PM)29.50 "Hg (Sep 16, 11:00 PM)
Average69 °F84%29.91 "Hg
* Reported Sep 2 3:00 AM — Sep 17 3:30 AM, Coimbra, Weather by CustomWeather, © 2014

Note: Actual official high and low records may vary slightly from our data, if they occured in-between our weather recording intervals... More about our weather records

Advertising

Coimbra weather history for previous 24 hours

 ConditionsComfort  
Time TempWeatherWind HumidityBarometerVisibility
3:30 AM
Sep 17
68 °FMostly cloudy.17 mph94%29.53 "HgN/A
3:00 AM68 °FPassing clouds.20 mph88%29.53 "HgN/A
2:30 AM68 °FLow clouds.16 mph94%29.53 "HgN/A
2:00 AM68 °FSprinkles. Overcast.18 mph94%29.53 "HgN/A
1:30 AM68 °FMostly cloudy.21 mph94%29.53 "HgN/A
1:00 AM68 °FSprinkles. Partly cloudy.20 mph94%29.53 "HgN/A
12:30 AM68 °FSprinkles. Passing clouds.24 mph88%29.53 "Hg5 mi
12:00 AM68 °FSprinkles. Mostly cloudy.24 mph88%29.50 "Hg5 mi
11:00 PM
Sep 16
68 °FSprinkles. Passing clouds.26 mph88%29.50 "HgN/A
10:30 PM70 °FPassing clouds.21 mph78%29.53 "HgN/A
10:00 PM70 °FPassing clouds.21 mph83%29.53 "HgN/A
9:30 PM70 °FPassing clouds.18 mph83%29.53 "HgN/A
9:02 PM70 °FPassing clouds.22 mph83%29.53 "HgN/A
9:00 PM70 °FPassing clouds.21 mph83%29.53 "HgN/A
8:30 PM68 °FScattered clouds.20 mph88%29.53 "HgN/A
8:00 PM68 °FSprinkles. Broken clouds.21 mph88%29.53 "HgN/A
7:00 PM70 °FSprinkles. Scattered clouds.22 mph83%29.53 "HgN/A
6:30 PM72 °FScattered clouds.21 mph78%29.53 "HgN/A
6:00 PM72 °FScattered clouds.23 mph78%29.53 "HgN/A
5:00 PM73 °FPassing clouds.20 mph69%29.53 "HgN/A
4:30 PM73 °FPassing clouds.22 mph69%29.53 "HgN/A
4:00 PM73 °FScattered clouds.22 mph69%29.53 "HgN/A
3:30 PM73 °FScattered clouds.24 mph69%29.53 "HgN/A
3:00 PM73 °FScattered clouds.23 mph69%29.56 "HgN/A
2:30 PM73 °FScattered clouds.25 mph69%29.56 "HgN/A
2:03 PM73 °FPartly sunny.23 mph69%29.56 "HgN/A
2:00 PM73 °FPartly sunny.23 mph65%29.56 "HgN/A
1:30 PM73 °FPartly sunny.23 mph65%29.56 "HgN/A
1:00 PM75 °FScattered clouds.24 mph61%29.56 "HgN/A
12:30 PM77 °FPartly sunny.24 mph54%29.56 "HgN/A
12:00 PM75 °FScattered clouds.22 mph57%29.56 "HgN/A
11:30 AM73 °FScattered clouds.22 mph61%29.56 "HgN/A
11:01 AM75 °FScattered clouds.22 mph57%29.56 "HgN/A
10:30 AM73 °FScattered clouds.21 mph57%29.56 "HgN/A
10:00 AM72 °FScattered clouds.22 mph61%29.59 "HgN/A
9:30 AM72 °FScattered clouds.16 mph65%29.56 "HgN/A
9:00 AM72 °FScattered clouds.14 mph65%29.56 "HgN/A
8:30 AM70 °FScattered clouds.10 mph69%29.56 "HgN/A
8:00 AM70 °FPassing clouds.10 mph73%29.56 "HgN/A
7:30 AM70 °FPassing clouds.13 mph73%29.56 "HgN/A
7:00 AM68 °FPassing clouds.12 mph83%29.59 "HgN/A
6:30 AM68 °FPassing clouds.9 mph83%29.59 "HgN/A
6:00 AM68 °FPassing clouds.8 mph83%29.59 "HgN/A
5:30 AM68 °FPassing clouds.9 mph83%29.59 "HgN/A
5:00 AM68 °FPassing clouds.7 mph83%29.62 "HgN/A
Weather by CustomWeather, © 2014

See weather overviewHow to use our weather pages